FW5955 Weather Reports


time (UTC)temp
C
wind
direction
speed
KPH
gust
KPH
rain 1hr
cm
rain 24hr
cm
rain mn
cm
humidity
%
barometer
mb
20260903044518 18 248 1.6 6.4 0.00 0.03 0.00 85 1022.2
20260903043018 18 233 1.6 4.8 0.00 0.03 0.00 84 1022.3
20260903041528 18 224 1.6 6.4 0.00 0.03 0.00 85 1022.3
20260903040018 18 178 1.6 6.4 0.00 0.03 0.00 85 1022.4
20260903034515 18 216 6.4 9.7 0.00 0.03 0.00 84 1022.5
20260903033016 18 224 1.6 8.0 0.00 0.03 0.00 85 1022.4
20260903031520 18 186 1.6 8.0 0.00 0.03 0.00 86 1022.1
20260903030012 18 197 1.6 6.4 0.00 0.03 0.00 86 1022.1
20260903024508 18 167 1.6 9.7 0.00 0.03 0.03 87 1022.0
20260903023009 18 167 1.6 11.3 0.00 0.03 0.03 87 1022.2
20260903021507 18 224 1.6 6.4 0.00 0.03 0.03 87 1022.1
20260903020024 18 217 1.6 9.7 0.00 0.03 0.03 88 1022.3
20260903014506 18 210 1.6 6.4 0.00 0.03 0.03 89 1022.2
20260903013006 18 233 1.6 4.8 0.00 0.03 0.03 89 1022.5
20260903011505 17 206 0.0 4.8 0.00 0.03 0.03 88 1022.6
20260903010009 18 226 0.0 4.8 0.00 0.03 0.03 88 1022.8
20260903004506 18 234 0.0 4.8 0.00 0.03 0.03 88 1022.7
20260903003004 17 230 1.6 6.4 0.00 0.03 0.03 88 1022.8
20260903001505 18 184 1.6 8.0 0.00 0.03 0.03 88 1022.6
20260903000003 18 268 1.6 6.4 0.00 0.03 0.03 88 1022.5
20260902234503 18 236 1.6 6.4 0.00 0.03 0.03 88 1022.5
20260902233003 18 259 1.6 6.4 0.00 0.03 0.03 87 1022.5
20260902231502 18 200 1.6 6.4 0.00 0.03 0.03 86 1022.3
20260902230001 18 224 1.6 6.4 0.00 0.03 0.03 85 1022.4
20260902224501 18 226 3.2 6.4 0.00 0.03 0.03 86 1022.4
20260902223002 18 148 0.0 6.4 0.00 0.03 0.03 85 1022.2
20260902221600 18 159 0.0 6.4 0.00 0.03 0.03 85 1022.2
20260902220108 18 155 0.0 9.7 0.00 0.03 0.03 85 1022.4
20260902214559 18 158 0.0 1.6 0.00 0.03 0.03 85 1022.4
20260902213101 18 148 4.8 9.7 0.00 0.03 0.03 84 1022.5
20260902211600 19 176 0.0 6.4 0.00 0.03 0.03 83 1022.6
20260902210058 19 198 4.8 8.0 0.00 0.03 0.03 83 1022.9
20260902204558 19 148 1.6 6.4 0.00 0.03 0.03 84 1022.9
20260902203100 19 202 3.2 9.7 0.00 0.03 0.03 83 1023.0
20260902201600 20 156 4.8 8.0 0.00 0.03 0.03 82 1022.9
20260902200056 20 162 6.4 11.3 0.00 0.03 0.03 81 1022.9
20260902194600 20 184 4.8 11.3 0.00 0.03 0.03 83 1022.9
20260902193055 20 165 3.2 9.7 0.00 0.03 0.03 83 1022.9
20260902191554 20 174 4.8 11.3 0.00 0.03 0.03 80 1022.9
20260902190054 21 198 8.0 12.9 0.00 0.03 0.03 81 1022.9
20260902184553 21 154 4.8 14.5 0.00 0.03 0.03 81 1022.8
20260902183052 21 191 6.4 12.9 0.00 0.03 0.03 80 1022.7
20260902181552 22 152 0.0 3.2 0.00 0.03 0.03 76 1022.8
20260902180056 22 169 0.0 1.6 0.00 0.03 0.03 76 1022.7
20260902174551 22 98 0.0 1.6 0.00 0.03 0.03 73 1022.8
20260902173049 22 124 0.0 1.6 0.00 0.03 0.03 74 1022.8
20260902171549 22 117 0.0 3.2 0.00 0.03 0.03 77 1022.8
20260902170046 22 153 0.0 3.2 0.00 0.03 0.03 78 1022.7
20260902164543 22 128 0.0 4.8 0.00 0.03 0.03 79 1022.6
20260902163044 21 106 0.0 8.0 0.00 0.03 0.03 82 1022.4
20260902161542 21 120 3.2 9.7 0.00 0.03 0.03 82 1022.4
20260902160040 21 51 1.6 12.9 0.00 0.03 0.03 83 1022.6
20260902154537 21 205 1.6 11.3 0.00 0.03 0.03 84 1022.6
20260902153036 21 122 3.2 11.3 0.00 0.03 0.03 83 1022.6
20260902151540 21 117 1.6 11.3 0.00 0.03 0.03 83 1022.8
20260902150032 20 51 1.6 12.9 0.00 0.03 0.03 84 1022.8
20260902144529 20 83 4.8 11.3 0.00 0.03 0.03 84 1022.9
20260902143026 20 96 6.4 11.3 0.00 0.03 0.03 84 1022.9
20260902141530 19 83 4.8 11.3 0.00 0.03 0.03 84 1022.8
20260902140022 19 118 4.8 11.3 0.00 0.03 0.03 83 1022.8
20260902134529 19 115 4.8 11.3 0.00 0.03 0.03 83 1022.7
20260902133019 19 158 3.2 9.7 0.00 0.03 0.03 84 1022.7
20260902131515 19 61 3.2 9.7 0.00 0.03 0.03 85 1022.8
20260902130012 18 102 1.6 8.0 0.00 0.03 0.03 86 1022.7
20260902124510 17 357 4.8 9.7 0.00 0.03 0.03 86 1022.6
20260902123011 17 49 3.2 9.7 0.00 0.03 0.03 86 1022.6
20260902121508 17 299 1.6 8.0 0.00 0.03 0.03 88 1022.6
20260902120003 17 38 3.2 11.3 0.00 0.03 0.03 88 1022.6
20260902114659 16 47 3.2 12.9 0.00 0.03 0.03 89 1022.6
20260902113100 16 80 0.0 6.4 0.00 0.03 0.03 90 1022.6
20260902111554 16 39 3.2 8.0 0.00 0.03 0.03 91 1022.5
20260902110056 15 49 1.6 8.0 0.00 0.03 0.03 91 1022.6
20260902104614 15 50 0.0 4.8 0.00 0.03 0.03 92 1022.5
20260902103046 15 60 0.0 1.6 0.00 0.03 0.03 93 1022.4
20260902101544 14 13 0.0 4.8 0.00 0.03 0.03 93 1022.3
20260902100106 13 61 0.0 6.4 0.00 0.03 0.03 93 1022.3
20260902094542 13 57 0.0 4.8 0.00 0.03 0.03 94 1022.1
20260902093041 13 79 0.0 3.2 0.03 0.03 0.03 94 1022.0
20260902091540 13 248 0.0 1.6 0.03 0.03 0.03 94 1021.8
20260902090039 13 340 0.0 3.2 0.03 0.03 0.03 94 1021.8
20260902084536 13 80 0.0 1.6 0.03 0.03 0.03 94 1021.5
20260902083034 13 267 0.0 3.2 0.00 0.00 0.00 94 1021.5
20260902081544 13 114 0.0 0.0 0.00 0.00 0.00 94 1021.4
20260902080034 13 115 0.0 0.0 0.00 0.00 0.00 93 1021.3
20260902074530 13 115 0.0 0.0 0.00 0.00 0.00 93 1021.2
20260902073028 13 351 0.0 6.4 0.00 0.00 0.00 93 1021.2
20260902071534 13 38 0.0 4.8 0.00 0.00 0.00 93 1021.1
20260902070026 13 140 0.0 1.6 0.00 0.00 0.00 93 1021.0
20260902064523 13 69 0.0 0.0 0.00 0.00 0.00 93 1020.8
20260902063023 13 65 0.0 1.6 0.00 0.00 0.00 93 1020.7
20260902061519 13 39 0.0 3.2 0.00 0.00 0.00 93 1020.6
20260902060018 13 49 0.0 4.8 0.00 0.00 0.00 93 1020.5
20260902054517 14 54 1.6 6.4 0.00 0.00 0.00 93 1020.4
20260902053016 13 68 0.0 9.7 0.00 0.00 0.00 93 1020.3
20260902051514 14 120 0.0 8.0 0.00 0.00 0.00 93 1020.2
20260902050019 14 48 1.6 8.0 0.00 0.00 0.00 93 1020.1